Location: Unspecified
(43.4354°N, 0.0000°E)
Time: 22:35:50
(UTC+00:00)

Transit 2A - Pass Details

Date: 16 June 2019
Orbit: 594 x 964 km, 66.7° (Epoch: 20 July)

Event Time Altitude Azimuth Distance (km) Brightness Sun altitude
Rises 23:49:04 0° 158° (SSE) 3,593 - -23.1°
Reaches altitude 10° 23:52:38 10° 137° (SE) 2,682 - -23.2°
Exits shadow 23:55:14 15° 113° (ESE) 2,328 8.2 -23.2°
Maximum altitude 23:56:13 16° 102° (ESE) 2,298 8.3 -23.2°
Drops below altitude 10° 23:59:49 10° 68° (ENE) 2,700 9.1 -23.2°
Sets 00:03:25 0° 48° (NE) 3,629 10.1 -23.2°
